Regional Weather Roundup
Issued by NWS Columbia, SC

Home | Current Version | Previous Version | Text Only | Print | Product List | Glossary On
Versions: 1 2 3 4 5 6 7 8 9 10 11 12 13 14 15 16 17 18 19 20 21 22 23 24 25 26 27 28 29 30 31 32 33 34 35 36 37 38 39 40 41 42 43 44 45 46 47 48 49 50
000
ASUS42 KCAE 250910
RWRCAE
REGIONAL WEATHER ROUNDUP
NATIONAL WEATHER SERVICE COLUMBIA SC
500 AM EDT FRI JUL 25 2014

NOTE: "FAIR" INDICATES FEW OR NO CLOUDS BELOW 12,000 FEET WITH NO
SIGNIFICANT WEATHER AND/OR OBSTRUCTIONS TO VISIBILITY.

NOT ALL STATIONS ARE QUALITY CONTROLLED BY THE NATIONAL
WEATHER SERVICE. USE DATA WITH CAUTION...ESPECIALLY
DEWPOINT OBSERVATIONS.

SCZ001>056-GAZ040-063>065-077-251000-
...UPSTATE SOUTH CAROLINA...

CITY           SKY/WX    TMP DP  RH WIND       PRES   REMARKS
ANDERSON       CLEAR     71  68  90 NE3       29.97S
LIBERTY        FAIR      68  32  26 N3        29.99R
SPARTANBURG    FAIR      72  72 100 NE6       29.99S
CLEMSON        CLEAR     74  68  81 N3        30.00R
GREENVILLE     MOCLDY    72  66  81 NE7       30.00S
GREENWOOD      PTCLDY    73  69  87 NE5       29.98S
GREER          CLEAR     71  67  87 NE5       29.98S
ROCK HILL      CLOUDY    69  66  90 VRB3      30.00R
CHESTER        CLOUDY    72  72 100 NE7       29.99S
LAURENS        FAIR      72 N/A N/A NE5       29.98S


...CENTRAL SOUTH CAROLINA...

CITY           SKY/WX    TMP DP  RH WIND       PRES   REMARKS
COLUMBIA APT   PTCLDY    77  71  82 S3        29.95S
COLUMBIA OWENS PTCLDY    77  72  84 CALM      29.97R
DARLINGTON     MOCLDY    72  68  88 N7        29.98R
FLORENCE       MOCLDY    73  71  93 E3        29.96R
MCENTIRE ANGB  PTCLDY    73  72  94 NE2       29.97R
ORANGEBURG     PTCLDY    77  71  82 W3        29.96R
SUMTER SHAW    PTCLDY    74  73  97 E2        29.96R
NEWBERRY       FAIR      72  72 100 NE3       29.99F
AIKEN          FAIR      73  73 100 CALM      30.00S
BARNWELL       FAIR      75  72  88 W3        29.97S
MANNING        PTSUNNY   77 N/A N/A CALM      29.96S
CAMDEN         FAIR      72  68  88 CALM      29.98R
LANCASTER      LGT RAIN  68  68 100 NE3       29.99R
WINNSBORO      FAIR      72  70  94 NE7       29.97S


...EASTERN AND COASTAL SOUTH CAROLINA...

CITY           SKY/WX    TMP DP  RH WIND       PRES   REMARKS
MYRTLE BEACH   CLOUDY    75  72  88 CALM      29.96S
N MYRTLE BCH   LGT RAIN  75  72  90 SW5       29.96R
CONWAY         FAIR      73  73 100 CALM      29.96S FOG
MARION         PTSUNNY   72  72 100 CALM      29.97R
HARTSVILLE     FAIR      72  72 100 N5        29.98R
FLORENCE       MOCLDY    73  71  93 E3        29.96R
DARLINGTON     MOCLDY    72  68  88 N7        29.98R
CHARLESTON APT PTCLDY    80  73  79 SW8       29.96R
MOUNT PLEASANT FAIR      81  75  83 CALM      29.96R
WALTERBORO     SUNNY     77  77 100 W5        29.97R
BEAUFORT       CLEAR     79  72  79 NW8       29.97R


...EASTERN GEORGIA...

CITY           SKY/WX    TMP DP  RH WIND       PRES   REMARKS
AUGUSTA BUSH F CLEAR     72  71  97 SE3       29.96R FOG
AUGUSTA DANIEL CLEAR     77  72  84 CALM      29.98R
THOMSON        PTCLDY    74  74 100 CALM      30.01S
WASHINGTON     FAIR      73 N/A N/A CALM      29.97F
CLAXTON        FAIR      77  77 100 CALM      29.99R
SYLVANIA       MOSUNNY   76  75  96 CALM      29.99R
STATESBORO     CLEAR     76  76 100 SW3       29.98R
SAVANNAH       CLEAR     77  72  84 W7        29.99R


...SOUTHERN NORTH CAROLINA...

CITY           SKY/WX    TMP DP  RH WIND       PRES   REMARKS
CHARLOTTE      PTCLDY    68  64  87 NE5       30.00S
MONROE         CLOUDY    69  66  90 NE9       29.98F
WADESBORO      CLOUDY    71  67  89 N5        29.98S
ROCKINGHAM       N/A     72  70  94 NE3       29.98R
RUTHERFORDTON  CLOUDY    69  66  88 E3        30.02S
ASHEVILLE      CLOUDY    66  63  90 CALM      30.06R

$$


USA.gov is the U.S. government's official web portal to all federal, state and local government web resources and services.